This demonstration page uses our WeatherBlox Daily Observations layout. Learn more.

Left ArrowRight Arrow

Hourly Observations for March 28, 2022

Temp ( °F °C ) Dew Point ( °F °C ) Humidity (%) Winds ( mph kmh ) Pressure ( in mb ) Visibility ( mi km ) Precip ( " mm )
12:51 am 00:51 Mostly Clear 27 -2.8 8 -13.3 45 45 WNW 15 24 29.84 1010 10 16 0.00 0.00
1:51 am 01:51 Clear 25 -3.9 7 -13.9 46 46 NW 15 24 29.85 1011 10 16 0.00 0.00
2:51 am 02:51 Clear 25 -3.9 3 -16.1 39 39 NW 16 26 29.85 1011 10 16 0.00 0.00
3:51 am 03:51 Clear 24 -4.4 4 -15.6 42 42 NW 14 22 29.86 1011 10 16 0.00 0.00
4:51 am 04:51 Clear 22 -5.6 2 -16.7 42 42 WNW 12 19 29.88 1012 10 16 0.00 0.00
5:51 am 05:51 Mostly Clear 22 -5.6 2 -16.7 42 42 NW 14 22 29.88 1012 10 16 0.00 0.00
6:51 am 06:51 Sunny 22 -5.6 1 -17.2 40 40 NW 14 22 29.90 1013 10 16 0.00 0.00
7:51 am 07:51 Sunny 23 -5 2 -16.7 40 40 NW 15 24 29.91 1013 10 16 0.00 0.00
8:51 am 08:51 Sunny 25 -3.9 3 -16.1 39 39 NNW 13 20 29.90 1013 10 16 0.00 0.00
9:51 am 09:51 Mostly Sunny 27 -2.8 2 -16.7 34 34 NW 17 28 29.91 1013 10 16 0.00 0.00
10:51 am 10:51 Mostly Cloudy 27 -2.8 1 -17.2 32 32 WNW 16 26 29.90 1012 10 16 0.00 0.00
11:51 am 11:51 Mostly Cloudy 30 -1.1 1 -17.2 29 29 WNW 14 22 29.88 1012 10 16 0.00 0.00
12:51 pm 12:51 Mostly Cloudy 30 -1.1 0 -17.8 27 27 W 20 31 29.87 1012 10 16 0.00 0.00
1:51 pm 13:51 Cloudy 30 -1.1 0 -17.8 27 27 W 18 30 29.87 1011 10 16 0.00 0.00
2:51 pm 14:51 Cloudy 28 -2.2 5 -15 37 37 NW 20 31 29.88 1012 10 16 0.00 0.00
3:51 pm 15:51 Mostly Cloudy 29 -1.7 4 -15.6 34 34 NW 22 35 29.88 1012 10 16 0.00 0.00
4:51 pm 16:51 Partly Cloudy 29 -1.7 -1 -18.3 27 27 WNW 21 33 29.88 1012 10 16 0.00 0.00
5:51 pm 17:51 Partly Cloudy 28 -2.2 2 -16.7 32 32 WNW 17 28 29.91 1013 10 16 0.00 0.00
6:51 pm 18:51 Mostly Sunny 27 -2.8 2 -16.7 34 34 NW 15 24 29.95 1014 10 16 0.00 0.00
7:51 pm 19:51 Cloudy 26 -3.3 2 -16.7 35 35 NW 16 26 29.98 1015 10 16 0.00 0.00
8:51 pm 20:51 Mostly Cloudy 25 -3.9 3 -16.1 39 39 NNW 14 22 30.03 1017 10 16 0.00 0.00
9:51 pm 21:51 Mostly Clear 23 -5 2 -16.7 40 40 NW 16 26 30.04 1017 10 16 0.00 0.00
10:51 pm 22:51 Cloudy 24 -4.4 3 -16.1 40 40 NW 15 24 30.05 1018 10 16 0.00 0.00
11:51 pm 23:51 Cloudy 23 -5 5 -15 46 46 NW 21 33 30.06 1018 10 16 0.00 0.00

Powered by AerisWeather